PHARMSAT
1 35002U 09028B 09344.91298205 .00002227 00000-0 58969-4 0 1575
2 35002 040.4685 262.0795 0025788 038.4193 321.8463 15.40451420 31599
HAWKSAT1
1 35003U 09028C 09343.91187513 .00004957 00000-0 11913-3 0 1630
2 35003 040.4637 266.6307 0025432 035.0542 325.1939 15.41650077 31464
CP6
1 35004U 09028D 09343.90393848 .00005535 00000-0 13154-3 0 1575
2 35004 040.4649 266.5770 0024814 035.6723 324.5746 15.41851812 31459
AEROCUB3
1 35005U 09028E 09344.90273128 .00007625 00000-0 18007-3 0 1625
2 35005 040.4756 261.1790 0025002 039.5380 320.7270 15.41661825 31604
DRAGNSAT
1 35690U 09038B 09344.76570910 .00045171 00000-0 15282-3 0 1359
2 35690 051.6363 109.8599 0003869 243.9995 116.0617 15.89459764 21123
POLLUX
1 35693U 09038E 09344.77090188 .00040043 00000-0 14572-3 0 1429
2 35693 051.6371 110.6637 0002793 189.4886 170.6010 15.88055698 21081
CASTOR
1 35694U 09038F 09344.78407903 .00016740 00000-0 76455-4 0 1266
2 35694 051.6392 112.3061 0003740 172.6969 187.4067 15.83925008 21066
METEOR-M
1 35865U 09049A 09344.32698875 .00000176 00000-0 10000-3 0 749
2 35865 098.7872 034.2180 0002269 169.6718 190.4452 14.21828127 11884
